This is the latest recevied weather packets stored in our database for station/object KO6LQJ. If no packets are shown the sender has not sent any weather packets the latest 10 day(s).
| Time | Temp. | Humidity | Pressure | Rain* | Wind** | Luminosity | Snow |
|---|---|---|---|---|---|---|---|
| 1777765374 | 25.56° C | 51% | 1011.9 hPa | 0 mm | - | 51 W/m² | - |
| 1777765070 | 25° C | 51% | 1012 hPa | 0 mm | - | 51 W/m² | - |
| 1777764767 | 25.56° C | 50% | 1012.1 hPa | 0 mm | - | 133 W/m² | - |
| 1777764463 | 25.56° C | 50% | 1012.1 hPa | 0 mm | - | 51 W/m² | - |
| 1777764160 | 25° C | 51% | 1012.1 hPa | 0 mm | - | 51 W/m² | - |
| 1777763856 | 25° C | 51% | 1012.3 hPa | 0 mm | - | 54 W/m² | - |
| 1777763554 | 26.11° C | 49% | 1012.3 hPa | 0 mm | - | 55 W/m² | - |
| 1777763253 | 25.56° C | 49% | 1012.2 hPa | 0 mm | - | 55 W/m² | - |
| 1777762951 | 26.11° C | 50% | 1012.3 hPa | 0 mm | - | 57 W/m² | - |
| 1777762646 | 25.56° C | 49% | 1012.2 hPa | 0 mm | - | 59 W/m² | - |
| 1777762344 | 25.56° C | 50% | 1012.4 hPa | 0 mm | - | 61 W/m² | - |
| 1777762040 | 25.56° C | 50% | 1012.8 hPa | 0 mm | - | 63 W/m² | - |
| 1777761737 | 26.11° C | 50% | 1012.6 hPa | 0 mm | - | 65 W/m² | - |
| 1777761434 | 26.11° C | 49% | 1012.9 hPa | 0 mm | - | 501 W/m² | - |
| 1777761132 | 26.11° C | 49% | 1013 hPa | 0 mm | - | 212 W/m² | - |
| 1777760830 | 26.11° C | 49% | 1013.1 hPa | 0 mm | - | 77 W/m² | - |
| 1777760526 | 26.67° C | 49% | 1013 hPa | 0 mm | - | 75 W/m² | - |
| 1777760222 | 26.11° C | 50% | 1013.2 hPa | 0 mm | - | 113 W/m² | - |
| 1777759919 | 25.56° C | 50% | 1013.3 hPa | 0 mm | - | 142 W/m² | - |
| 1777759615 | 26.67° C | 48% | 1013.3 hPa | 0 mm | - | 491 W/m² | - |
| 1777759311 | 26.67° C | 48% | 1013.3 hPa | 0 mm | - | 592 W/m² | - |
| 1777759009 | 26.67° C | 48% | 1013.6 hPa | 0 mm | - | 93 W/m² | - |
| 1777758705 | 26.67° C | 49% | 1013.4 hPa | 0 mm | - | 324 W/m² | - |
| 1777758403 | 26.67° C | 49% | 1013.5 hPa | 0 mm | - | 276 W/m² | - |
| 1777758100 | 26.67° C | 49% | 1013.8 hPa | 0 mm | - | 286 W/m² | - |
* Rain latest hour (hover to see other rain measurements)
** Current wind speed in m/s (hover to see current wind gust speed)